User: anonymous   Login
Location: Asheville, NC
(35.6000°N, 82.5500°W)
Time: 23:57:45
(UTC-05:00)
Language:

BEESAT 3 - Orbit

View from above orbital plane
View from above orbital plane
View from above satellite
View from above satellite

Ground track
Ground track

The orbit data is extracted from the following two-line orbital elements,

1 39134U 13015E   18019.07413013  .00001076  00000-0  60830-4 0  9993
2 39134  64.8627 249.1047 0029078 230.0263 129.8310 15.18724846262251
Epoch (UTC): 19 January 2018 01:46:44
Eccentricity: 0.0029078
inclination: 64.8627°
perigee height: 489 km
apogee height: 530 km
right ascension of ascending node: 249.1047°
argument of perigee: 230.0263°
revolutions per day: 15.18724846
mean anomaly at epoch: 129.8310°
orbit number at epoch: 26225

The dashed part of the orbit path shows where the satellite is in the earth's shadow,  

DLR